Location: Hohe Wand Kleine Kanzel
(47.8330°N, 16.0170°E)
Time: 10:45:56
(UTC+02:00)

SR - All Passes

Search period start: 31 July 2021 00:00
Search period end: 10 August 2021 00:00
Orbit: 577 x 877 km, 66.7° (Epoch: 30 July)

Date Brightness Start Highest point End Pass type
(mag) Time Alt. Az. Time Alt. Az. Time Alt. Az.
31 Jul - 06:38:17 10° S 06:43:34 37° ESE 06:48:37 10° NE daylight
31 Jul - 08:20:03 10° WSW 08:25:36 47° NW 08:30:51 10° NNE daylight
31 Jul - 10:05:47 10° WNW 10:08:58 15° NNW 10:12:02 10° N daylight
31 Jul - 13:34:55 10° N 13:37:51 15° NNE 13:40:39 10° ENE daylight
31 Jul - 15:16:15 10° NNW 15:21:06 55° NE 15:25:32 10° SE daylight
31 Jul - 16:59:06 10° WNW 17:02:41 21° WSW 17:06:04 10° SSW daylight
01 Aug - 05:49:53 10° SSE 05:54:02 21° ESE 05:58:04 10° ENE daylight
01 Aug - 07:29:50 10° SW 07:35:39 78° NW 07:41:08 10° NNE daylight
01 Aug - 09:14:18 10° W 09:18:32 21° NW 09:22:35 10° NNE daylight
01 Aug - 12:45:37 10° N 12:47:17 11° NNE 12:48:55 10° NE daylight
01 Aug - 14:26:35 10° NNW 14:31:01 32° NE 14:35:08 10° ESE daylight
01 Aug - 16:08:40 10° NW 16:13:12 42° WSW 16:17:23 10° S daylight
02 Aug - 05:03:41 10° ESE 05:04:41 10° ESE 05:05:42 10° E daylight
02 Aug - 06:40:07 10° SSW 06:45:50 62° ESE 06:51:15 10° NE daylight
02 Aug - 08:23:13 10° WSW 08:28:16 31° NW 08:33:03 10° NNE daylight
02 Aug - 10:10:04 10° NW 10:12:01 12° NNW 10:13:56 10° N daylight
02 Aug - 13:37:00 10° NNW 13:40:46 21° NE 13:44:17 10° E daylight
02 Aug - 15:18:38 10° NW 15:23:31 85° SW 15:27:59 10° SSE daylight
02 Aug - 17:03:19 10° W 17:04:36 11° WSW 17:05:51 10° WSW daylight
03 Aug - 05:51:00 10° S 05:56:10 35° ESE 06:01:07 10° NE daylight
03 Aug - 07:32:35 10° WSW 07:38:09 49° NW 07:43:25 10° NNE daylight
03 Aug - 09:18:12 10° WNW 09:21:28 16° NNW 09:24:37 10° N daylight
03 Aug - 12:47:34 10° N 12:50:20 15° NNE 12:52:59 10° ENE daylight
03 Aug - 14:28:50 10° NNW 14:33:38 52° NE 14:38:01 10° SE daylight
03 Aug - 16:11:36 10° WNW 16:15:17 23° WSW 16:18:45 10° SSW daylight
04 Aug - 05:02:43 10° SSE 05:06:40 19° ESE 05:10:30 10° ENE visible
04 Aug - 06:42:24 10° SW 06:48:13 82° NW 06:53:41 10° NNE daylight
04 Aug - 08:26:45 10° W 08:31:03 22° NW 08:35:09 10° NNE daylight
04 Aug - 11:58:21 10° N 11:59:45 11° NNE 12:01:09 10° NNE daylight
04 Aug - 13:39:10 10° NNW 13:43:32 30° NE 13:47:35 10° ESE daylight
04 Aug - 15:21:13 10° NW 15:25:47 45° WSW 15:30:00 10° S daylight
05 Aug - 05:52:45 10° SSW 05:58:26 58° ESE 06:03:47 10° NE daylight
05 Aug - 07:35:43 10° WSW 07:40:48 32° NW 07:45:36 10° NNE daylight
05 Aug - 09:22:28 10° NW 09:24:31 12° NNW 09:26:31 10° N daylight
05 Aug - 12:49:38 10° NNW 12:53:16 20° NNE 12:56:40 10° E daylight
05 Aug - 14:31:13 10° NW 14:36:05 90° ESE 14:40:31 10° SSE daylight
05 Aug - 16:15:30 10° W 16:17:12 12° WSW 16:18:52 10° SW daylight
06 Aug - 05:03:42 10° S 05:08:46 32° ESE 05:13:38 10° NE visible
06 Aug - 06:45:07 10° SW 06:50:44 52° NW 06:55:59 10° NNE daylight
06 Aug - 08:30:38 10° WNW 08:33:58 16° NNW 08:37:11 10° N daylight
06 Aug - 12:00:13 10° N 12:02:49 14° NNE 12:05:19 10° NE daylight
06 Aug - 13:41:26 10° NNW 13:46:10 48° NE 13:50:31 10° SE daylight
06 Aug - 15:24:05 10° WNW 15:27:52 24° WSW 15:31:26 10° SSW daylight
07 Aug - 04:15:32 10° SSE 04:19:17 18° ESE 04:22:55 10° ENE visible
07 Aug - 05:55:01 10° SW 06:00:48 86° NW 06:06:14 10° NE daylight
07 Aug - 07:39:13 10° W 07:43:34 23° NW 07:47:43 10° NNE daylight
07 Aug - 11:11:08 10° N 11:12:14 11° NNE 11:13:19 10° NNE daylight
07 Aug - 12:51:47 10° NNW 12:56:03 29° NE 13:00:01 10° E daylight
07 Aug - 14:33:45 10° NW 14:38:20 49° WSW 14:42:35 10° SSE daylight
08 Aug - 05:05:24 10° SSW 05:11:01 54° ESE 05:16:19 10° NE visible
08 Aug - 06:48:13 10° WSW 06:53:20 34° NW 06:58:10 10° NNE daylight
08 Aug - 08:34:52 10° NW 08:36:59 12° NNW 08:39:04 10° N daylight
08 Aug - 12:02:16 10° NNW 12:05:45 19° NNE 12:09:03 10° ENE daylight
08 Aug - 13:43:47 10° NW 13:48:38 85° ENE 13:53:03 10° SE daylight
08 Aug - 15:27:47 10° WNW 15:29:49 13° WSW 15:31:47 10° SW daylight
09 Aug - 04:16:25 10° S 04:21:22 30° ESE 04:26:07 10° NE visible
09 Aug - 05:57:40 10° SW 06:03:17 54° NW 06:08:31 10° NNE daylight
09 Aug - 07:43:03 10° WNW 07:46:28 16° NNW 07:49:45 10° N daylight
09 Aug - 11:12:53 10° N 11:15:18 13° NNE 11:17:38 10° NE daylight
09 Aug - 12:54:02 10° NNW 12:58:41 45° NE 13:02:59 10° ESE daylight
09 Aug - 14:36:35 10° NW 14:40:27 26° WSW 14:44:06 10° SSW daylight
